Погода Остров Голомянный

Погода Остров Голомянный : погода сейчас, прогноз погоды и архив. Всё, что Вы хотите узнать о погоде Остров Голомянный!

Хотите узнать прогноз погоды Остров Голомянный? Тогда Вам сюда: Погода Остров Голомянный

Поиск расширенной информации на нашем сайте:

Другие новости

Новости СМИ2

Главная страница сайта

Новости сайта

03.07.2017

Напоминаем, что на нашем специализированном сайте Метеоцентр.Азия вы можете получить высокодетализированные автоматические прогнозы погоды по пунктам России, СНГ и мира в авиационном формате (включающие направление и скорость ветра, видимость, явления погоды, количество и форму облачности, нижнюю и верхнюю границу облачности).


Погода Остров Голомянный - сегодня

Время (UTC), дата Ветер
(°,м/с) 
Видим.   Явления Облачность Т
(°С)
Тd
(°С)
f(%) Тe
(°С)
Pmin
(гПа)
dP
(гПа)
Po
(мм)
O2
(г/м3)
Тmin Tmax R s Состояние
почвы
21 17.08.17 200 (Ю) 2000 м  дымка  10/10 100 м 
[St]
+0.4 +0.4 100 -3  1000  -0.2  749  301           
00 18.08.17 220 (ЮЗ) 4000 м  дымка  10/10 100 м 
[St]
+0.2 +0.2 100 -3  1000  749  302  +0.1        мокрая 
03 18.08.17 250 (З) 20000 м    10/3 200 м средняя 
[St|Ac und]
+0.1 +0 99 -3  1000.6  0.6  750  302  +0         
06 18.08.17 250 (З) 20000 м    9/0 средняя 
[Ac trans]
+0 -1 93 -3  1001.2  0.6  750  302           
09 18.08.17 200 (Ю) 20000 м    10/0 средняя 
[Ac und]
+0.4 -1 90 -3  1001.3  0.1  750  302           
12 18.08.17 200 (Ю) 20000 м    10/0 средняя 
[Ac und]
+0.5 -0.6 92 -3  1001  -0.3  750  302    +0.6       
15 18.08.17 210 (ЮЗ) 7{11}  н/о    н/о 
+0.5 +0.2 98 -3  1000.2  -0.8  749  301           
18 18.08.17 190 (Ю) 20000 м    10/8 150 м средняя 
[St|Ac und]
+0.4 -0.1 96 -3  999.4  -0.8  749  301           
00 19.08.17 180 (Ю) 0500 м  туман  ?/?  
+0.1 +0.1 100 -4  997.7  -0.9  748  301  +0        мокрая 
03 19.08.17 170 (Ю) 0500 м  туман  ?/?  
+0 -0.1 99 -4  997  -0.7  747  301           
06 19.08.17 160 (Ю) 4000 м  дымка{туман}  10/10 100 м 
[St]
+0.1 +0 99 -3  995.8  -1.1  746  300           
09 19.08.17 190 (Ю) 4000 м  слаб. морось  10/10 120 м 
[St]
+0 -0.1 99 -2  995.2  -0.6  746  300           
12 19.08.17 260 (З) 4000 м  дымка{морось}  8/5 150 м средняя 
[St|Ac trans]
-0.3 -0.4 99 -4  995.9  0.7  746  301    +0.3  0.5     
15 19.08.17 230 (ЮЗ) 20000 м    9/9 180 м 
[St]
-0.2 -1.2 93 -4  996.4  0.5  747  301           
18 19.08.17 220 (ЮЗ) 4000 м  слаб. ливневой снег  10/8 210 м кучево-дожд., средняя 
[Cb cap|Ac und]
-0.5 -1.2 95 -4  996.9  0.5  747  302           
00 20.08.17 220 (ЮЗ) 6{10}  20000 м  {ливн. осадки}  10/10 150 м 
[St]
-0.3 -1.1 94 -4  997.1  747  301  -0.6    0.0     
03 20.08.17 200 (Ю) 20000 м    10/6 240 м средняя 
[St|Ac und]
-0.4 -0.8 97 -5  996.7  -0.5  747  301  -0.7         
06 20.08.17 210 (ЮЗ) 8-11{12}  20000 м    10/0 средняя 
[Ac und]
+0.1 -0.9 93 -4  996.5  -0.2  747  301           
09 20.08.17 200 (Ю) 10-13{13}  20000 м  {дождь}  10/0 средняя 
[Ac und]
+0 -0.4 97 -5  996.4  -0.1  747  301           
12 20.08.17 200 (Ю) 9-12{13}  2000 м  слаб. ливневой снег{дождь}  10/8 360 м кучево-дожд., средняя 
[Cb cap|Ac und]
-0.1 -0.4 98 -5  996.6  0.2  747  301    +0.3  0.5     
15 20.08.17 210 (ЮЗ) 7-10{12}  20000 м  {ливн. осадки}  10/10 210 м 
[St]
+0.1 -0.4 96 -4  996.3  -0.3  746  301           
18 20.08.17 210 (ЮЗ) 7{11}  20000 м  {ливн. осадки}  10/10 360 м 
[Sc]
-0.1 -0.6 96 -4  995.8  -0.5  746  301           
21 20.08.17 230 (ЮЗ) 6{11}  20000 м  в посл. час ливневой снег  10/10 330 м 
[Sc]
-0.3 -0.9 96 -4  995.4  -0.4  746  301           
00 21.08.17 240 (ЮЗ) 20000 м  {ливн. осадки}  10/0 средняя 
[Ac und]
-0.2 -1.3 92 -4  995.6  0.2  746  301  -0.5    0.0     
03 21.08.17 230 (ЮЗ) 20000 м    10/0 средняя 
[Ac und]
-0.2 -0.6 97 -4  995.5  0.1  746  301           
Время (UTC), дата Ветер
(°,м/с) 
Видим.   Явления Облачность Т
(°С)
Тd
(°С)
f(%) Тe
(°С)
Pmin
(гПа)
dP
(гПа)
Po
(мм)
O2
(г/м3)
Тmin Tmax R s Состояние
почвы

Для получения пояснительной информации подведите курсор к названию столбца.

ПОГОДА Остров Голомянный - архив

Всё, что Вы хотите узнать о погоде Остров Голомянный - удобно и подробно!

Выберите нужную дату (начиная с 1 января 2015* года) и нажмите кнопку "Найти".
Будут отображены архивные сводки погоды по пункту Остров Голомянный, начиная с указанной даты.


Отображать данные в формате CSV (для использования в таблицах Excel)


Внимание! Наш архив погоды предназначен исключительно для личного некоммерческого использования в познавательных целях. Если Вам необходимы официальные справки о состоянии погоды (для производственных, юридических, коммерческих и т.п. целей), обращайтесь в органы Росгидромета.

*Примечание: данная дата относится к архиву по метеостанциям СССР (Россия, СНГ, Балтия).
Архив по метеостанциям Зарубежной Европы и Азии (кроме Китая) хранится 10 дней, по другим регионам земного шара (Китай, Африка, Америка, Австралия, Океания) - 1 день.

Остров Голомянный - район местоположения метеостанции


Название, широта, долгота, высота метеостанции:
Остров Голомянный 79.6°ш. 90.6°д. 8 м над ур. моря [Российская Федерация]

Дополнительная информация

В oтличие oт бoльшинства пoгoдных сайтoв мы публикуем пoдрoбную метеoинфoрмацию в детальнoм прoфессиoнальнoм фoрмате.

Характеристики температуры и влажнoсти вoздуха измеряются на высoте 2 м в тени вдали oт зданий и деревьев.
Скoрoсть ветра измеряется на высoте 10 м (на урoвне рoста челoвека скoрoсть ветра ниже в 1.5-2 раза). Если метеoстанция нахoдится в гoрoде или в лесу, тo скoрoсть ветра занижена на 2-4 м/с пo сравнению с oткрытым местoм. Скoрoсть ветра над акватoриями крупных рек и oзёр, а также на вершинах хoлмoв на 2-5 м/с выше, чем в oбычных услoвиях.
Атмoсфернoе давление в разных тoчках местнoсти мoжет значительнo oтличаться oт давления на метеoстанции, в зависимoсти oт услoвий рельефа (при пoдъёме на 10 м давление пoнижается примернo на 1 мм рт.ст.).